FW9262 Weather Reports


time (UTC)temp
C
wind
direction
speed
KPH
gust
KPH
rain 1hr
cm
rain 24hr
cm
rain mn
cm
humidity
%
barometer
mb
20260504035914 15 194 6.4 6.4 0.00 0.00 0.00 77 1017.0
20260504035412 15 307 3.2 4.8 0.00 0.00 0.00 77 1016.6
20260504034908 15 204 3.2 4.8 0.00 0.00 0.00 78 1017.0
20260504034405 15 263 1.6 6.4 0.00 0.00 0.00 79 1016.6
20260504033902 15 257 4.8 6.4 0.00 0.00 0.00 79 1017.0
20260504033400 15 344 0.0 3.2 0.00 0.00 0.00 80 1017.0
20260504032857 15 251 1.6 3.2 0.00 0.00 0.00 80 1017.0
20260504032354 15 273 3.2 6.4 0.00 0.00 0.00 80 1016.6
20260504031850 15 289 3.2 6.4 0.00 0.00 0.00 80 1016.3
20260504031348 15 267 8.0 9.7 0.00 0.00 0.00 79 1016.3
20260504030844 15 289 3.2 6.4 0.00 0.00 0.00 78 1016.6
20260504030341 15 334 1.6 4.8 0.00 0.00 0.00 78 1016.6
20260504025837 15 324 4.8 6.4 0.00 0.00 0.00 77 1016.6
20260504025334 15 272 1.6 4.8 0.00 0.00 0.00 77 1016.3
20260504024831 15 301 1.6 9.7 0.00 0.00 0.00 77 1016.3
20260504024327 15 321 1.6 3.2 0.00 0.00 0.00 78 1016.3
20260504023824 15 261 6.4 9.7 0.00 0.00 0.00 79 1016.3
20260504023321 15 238 9.7 11.3 0.00 0.00 0.00 79 1016.3
20260504022816 15 328 0.0 9.7 0.00 0.00 0.00 79 1016.3
20260504022314 15 315 3.2 4.8 0.00 0.00 0.00 79 1016.3
20260504021810 15 197 8.0 12.9 0.00 0.00 0.00 78 1016.0
20260504021308 15 256 4.8 9.7 0.00 0.00 0.00 78 1016.0
20260504020804 16 183 4.8 6.4 0.00 0.00 0.00 77 1016.0
20260504020301 15 221 3.2 9.7 0.00 0.00 0.00 77 1016.0
20260504015757 16 261 4.8 6.4 0.00 0.00 0.00 77 1016.0
20260504015254 16 250 1.6 11.3 0.00 0.00 0.00 77 1016.0
20260504014750 16 244 6.4 11.3 0.00 0.00 0.00 76 1016.0
20260504014246 16 299 1.6 3.2 0.00 0.00 0.00 76 1016.0
20260504013744 16 329 1.6 4.8 0.00 0.00 0.00 76 1016.0
20260504013242 16 267 3.2 4.8 0.00 0.00 0.00 75 1015.6
20260504012738 16 229 6.4 9.7 0.00 0.00 0.00 75 1016.0
20260504012236 16 182 8.0 11.3 0.00 0.00 0.00 75 1016.0
20260504011732 16 334 1.6 9.7 0.00 0.00 0.00 75 1016.0
20260504011229 16 221 4.8 4.8 0.00 0.00 0.00 75 1016.0
20260504010725 16 239 4.8 6.4 0.00 0.00 0.00 74 1016.0
20260504010221 16 264 1.6 4.8 0.00 0.00 0.00 75 1016.0
20260504005718 16 216 6.4 9.7 0.00 0.00 0.00 74 1016.0
20260504005215 17 319 3.2 4.8 0.00 0.00 0.00 73 1016.0
20260504004713 16 309 1.6 4.8 0.00 0.00 0.00 73 1015.6
20260504004209 17 264 6.4 9.7 0.00 0.00 0.00 72 1015.6
20260504003706 17 145 4.8 6.4 0.00 0.00 0.00 71 1015.6
20260504003203 17 312 6.4 9.7 0.00 0.00 0.00 69 1016.0
20260504002700 17 339 1.6 6.4 0.00 0.00 0.00 70 1015.6
20260504002157 17 292 1.6 4.8 0.00 0.00 0.00 70 1015.6
20260504001655 17 221 4.8 9.7 0.00 0.00 0.00 70 1015.6
20260504001151 17 238 3.2 3.2 0.00 0.00 0.00 70 1015.6
20260504000648 18 152 3.2 6.4 0.00 0.00 0.00 69 1015.3
20260504000145 17 207 3.2 4.8 0.00 0.00 0.00 70 1015.6
20260503235643 17 310 3.2 9.7 0.00 0.00 0.00 71 1015.3
20260503235140 17 336 1.6 6.4 0.00 0.00 0.00 73 1015.6
20260503234638 17 328 3.2 3.2 0.00 0.00 0.00 73 1015.3
20260503234136 17 318 3.2 9.7 0.00 0.00 0.00 73 1015.6
20260503233632 17 341 3.2 9.7 0.00 0.00 0.00 72 1015.3
20260503233128 17 334 3.2 4.8 0.00 0.00 0.00 73 1015.6
20260503232625 17 327 1.6 4.8 0.00 0.00 0.00 73 1015.6
20260503232122 17 356 1.6 9.7 0.00 0.00 0.00 73 1015.6
20260503231620 17 196 4.8 6.4 0.00 0.00 0.00 73 1015.6
20260503231116 17 302 6.4 11.3 0.00 0.00 0.00 73 1015.6
20260503230614 17 249 4.8 11.3 0.00 0.00 0.00 72 1016.0
20260503230111 17 285 4.8 9.7 0.00 0.00 0.00 72 1016.0
20260503225608 17 287 4.8 11.3 0.00 0.00 0.00 70 1016.0
20260503225108 18 352 3.2 9.7 0.00 0.00 0.00 70 1016.0
20260503224606 17 165 3.2 4.8 0.00 0.00 0.00 70 1016.0
20260503224103 17 232 8.0 11.3 0.00 0.00 0.00 71 1016.0
20260503223601 17 303 3.2 6.4 0.00 0.00 0.00 71 1016.0
20260503223056 17 325 3.2 9.7 0.00 0.00 0.00 69 1016.0
20260503222555 18 194 8.0 11.3 0.00 0.00 0.00 69 1016.0
20260503222052 17 266 4.8 6.4 0.00 0.00 0.00 70 1016.0
20260503221550 17 211 4.8 9.7 0.00 0.00 0.00 70 1016.3
20260503221047 18 213 8.0 9.7 0.00 0.00 0.00 67 1016.3
20260503220543 18 333 6.4 6.4 0.00 0.00 0.00 67 1016.3
20260503220041 18 198 8.0 12.9 0.00 0.00 0.00 67 1016.3
20260503215537 18 286 6.4 11.3 0.00 0.00 0.00 66 1016.3
20260503215034 20 287 4.8 6.4 0.00 0.00 0.00 64 1016.3
20260503214533 19 348 4.8 9.7 0.00 0.00 0.00 63 1016.6
20260503214029 18 321 1.6 6.4 0.00 0.00 0.00 66 1016.3
20260503213528 18 237 4.8 6.4 0.00 0.00 0.00 66 1016.3
20260503213024 18 280 3.2 12.9 0.00 0.00 0.00 67 1016.3
20260503212521 18 354 3.2 17.7 0.00 0.00 0.00 67 1016.6
20260503212019 18 315 1.6 9.7 0.00 0.00 0.00 65 1016.3
20260503211515 18 256 6.4 11.3 0.00 0.00 0.00 62 1016.6
20260503211011 18 309 3.2 11.3 0.00 0.00 0.00 64 1016.6
20260503210508 18 279 4.8 12.9 0.00 0.00 0.00 63 1016.6
20260503210004 18 264 3.2 9.7 0.00 0.00 0.00 65 1016.6
20260503205500 18 234 6.4 11.3 0.00 0.00 0.00 63 1016.3
20260503204956 19 228 6.4 9.7 0.00 0.00 0.00 60 1016.6
20260503204454 18 335 3.2 9.7 0.00 0.00 0.00 62 1016.6
20260503203950 18 284 3.2 6.4 0.00 0.00 0.00 63 1016.6
20260503203448 18 233 6.4 11.3 0.00 0.00 0.00 61 1016.6
20260503202944 18 302 3.2 6.4 0.00 0.00 0.00 62 1017.0
20260503202443 18 236 4.8 9.7 0.00 0.00 0.00 64 1016.6
20260503201941 18 235 1.6 6.4 0.00 0.00 0.00 65 1016.6
20260503201438 18 252 6.4 9.7 0.00 0.00 0.00 63 1017.0
20260503200935 19 267 4.8 6.4 0.00 0.00 0.00 61 1016.6
20260503200432 18 241 6.4 9.7 0.00 0.00 0.00 61 1016.6
20260503195928 18 189 6.4 9.7 0.00 0.00 0.00 60 1016.6
20260503195426 18 232 6.4 9.7 0.00 0.00 0.00 60 1017.0
20260503194922 18 329 1.6 4.8 0.00 0.00 0.00 61 1017.0
20260503194419 18 211 4.8 6.4 0.00 0.00 0.00 63 1017.0
20260503193914 19 258 3.2 11.3 0.00 0.00 0.00 61 1017.0
20260503193410 19 226 4.8 9.7 0.00 0.00 0.00 61 1017.0
20260503192906 19 322 3.2 11.3 0.00 0.00 0.00 62 1017.0
20260503192402 19 135 3.2 11.3 0.00 0.00 0.00 62 1017.0
20260503191858 18 253 6.4 9.7 0.00 0.00 0.00 63 1017.0
20260503191356 18 308 1.6 4.8 0.00 0.00 0.00 62 1017.0
20260503190852 19 240 3.2 11.3 0.00 0.00 0.00 63 1017.0
20260503190349 20 164 3.2 9.7 0.00 0.00 0.00 61 1017.0
20260503185846 20 287 6.4 9.7 0.00 0.00 0.00 62 1017.0
20260503185343 19 247 4.8 11.3 0.00 0.00 0.00 63 1017.0
20260503184842 18 330 8.0 11.3 0.00 0.00 0.00 64 1017.3
20260503184339 18 291 3.2 11.3 0.00 0.00 0.00 64 1017.0
20260503183835 18 235 3.2 6.4 0.00 0.00 0.00 65 1017.3
20260503183332 18 228 3.2 9.7 0.00 0.00 0.00 63 1017.3
20260503182830 18 229 3.2 4.8 0.00 0.00 0.00 65 1017.3
20260503182329 18 344 1.6 3.2 0.00 0.00 0.00 64 1017.3
20260503181825 18 323 0.0 3.2 0.00 0.00 0.00 65 1017.3
20260503181322 18 271 3.2 6.4 0.00 0.00 0.00 65 1017.3
20260503180819 17 336 1.6 1.6 0.00 0.00 0.00 68 1017.0
20260503180317 17 268 1.6 4.8 0.00 0.00 0.00 68 1017.3
20260503175813 17 282 1.6 4.8 0.00 0.00 0.00 69 1017.0
20260503175311 17 276 3.2 4.8 0.00 0.00 0.00 70 1017.3
20260503174806 17 312 0.0 0.0 0.00 0.00 0.00 71 1017.3
20260503174305 17 349 1.6 1.6 0.00 0.00 0.00 72 1017.3
20260503173800 16 254 3.2 3.2 0.00 0.00 0.00 72 1017.3
20260503173255 16 251 3.2 4.8 0.00 0.00 0.00 73 1017.3
20260503172753 16 342 3.2 11.3 0.00 0.00 0.00 73 1017.3
20260503172250 16 313 3.2 4.8 0.00 0.00 0.00 73 1017.3
20260503171746 16 234 3.2 4.8 0.00 0.00 0.00 74 1017.0
20260503171243 16 265 3.2 3.2 0.00 0.00 0.00 74 1017.3
20260503170740 16 284 0.0 0.0 0.00 0.00 0.00 75 1017.0
20260503170237 16 255 4.8 4.8 0.00 0.00 0.00 75 1017.0
20260503160159 15 256 4.8 6.4 0.00 0.00 0.00 77 1017.0
20260503150629 15 264 1.6 3.2 0.00 0.00 0.00 78 1016.3
20260503150125 15 312 0.0 0.0 0.00 0.00 0.00 79 1016.3
20260503131019 15 313 0.0 1.6 0.00 0.00 0.00 85 1015.3
20260503130517 15 305 0.0 4.8 0.00 0.00 0.00 85 1015.3
20260503110407 15 342 0.0 0.0 0.00 0.00 0.00 82 1015.3
20260503090258 15 318 0.0 0.0 0.00 0.00 0.00 81 1016.0
20260503081231 15 313 0.0 1.6 0.00 0.00 0.00 85 1016.0
20260503080726 15 287 0.0 3.2 0.00 0.00 0.00 85 1016.0
20260503080224 15 335 0.0 3.2 0.00 0.00 0.00 86 1016.0
20260503072700 15 335 0.0 3.2 0.00 0.00 0.00 87 1015.6
20260503072157 15 311 0.0 1.6 0.00 0.00 0.00 87 1016.0
20260503071654 15 324 0.0 4.8 0.00 0.00 0.00 87 1015.6
20260503071151 15 288 1.6 3.2 0.00 0.00 0.00 87 1015.6
20260503070648 15 274 0.0 3.2 0.00 0.00 0.00 87 1015.6
20260503070146 15 341 1.6 1.6 0.00 0.00 0.00 87 1015.3
20260503060110 15 342 0.0 1.6 0.00 0.00 0.00 88 1015.3
20260503055101 15 223 3.2 4.8 0.00 0.00 0.00 88 1015.6
20260503054557 15 326 0.0 1.6 0.00 0.00 0.00 88 1015.3
20260503054054 15 336 0.0 3.2 0.00 0.00 0.00 88 1015.3
20260503053552 15 304 0.0 0.0 0.00 0.00 0.00 89 1015.6
20260503053050 15 305 1.6 3.2 0.00 0.00 0.00 89 1015.6
20260503052547 15 267 3.2 3.2 0.00 0.00 0.00 89 1015.6
20260503052043 15 323 0.0 3.2 0.00 0.00 0.00 88 1015.6
20260503051538 15 310 1.6 4.8 0.00 0.00 0.00 89 1015.6
20260503051037 15 290 3.2 4.8 0.00 0.00 0.00 89 1015.6
20260503050532 15 251 1.6 4.8 0.00 0.00 0.00 89 1015.6
20260503050030 15 198 3.2 4.8 0.00 0.00 0.00 89 1016.0
20260503045527 15 273 1.6 4.8 0.00 0.00 0.00 90 1015.6
20260503045024 15 328 1.6 4.8 0.00 0.00 0.00 90 1015.6
20260503044520 15 300 1.6 6.4 0.00 0.00 0.00 90 1015.3
20260503044018 15 268 0.0 4.8 0.00 0.00 0.00 90 1015.3
20260503043514 15 283 1.6 3.2 0.00 0.00 0.00 90 1015.3
20260503043011 15 274 1.6 1.6 0.00 0.00 0.00 90 1015.3
20260503042508 15 202 1.6 4.8 0.00 0.00 0.00 90 1015.3
20260503042004 15 321 1.6 4.8 0.00 0.00 0.00 90 1014.9
20260503041501 15 284 1.6 3.2 0.00 0.00 0.00 89 1014.9
20260503040959 15 321 1.6 3.2 0.00 0.00 0.00 90 1014.9
20260503040456 15 324 0.0 0.0 0.00 0.00 0.00 90 1014.6
20260503035953 15 312 1.6 4.8 0.00 0.00 0.00 90 1014.9